Preview of NWS' New Version of Forecast
This preview is not operational and should not be used for support decisions.

Regional Weather Roundup (RWR)

Issued by National Weather Service (NWS)

                            
000
ASUS44 KJAN 181710
RWRMS 

MISSISSIPPI HOURLY WEATHER ROUNDUP
NATIONAL WEATHER SERVICE JACKSON MS
1200 PM CDT TUE JUN 18 2019

NOTE: "FAIR: INDICATES FEW OR NO CLOUDS BELOW 12,000 FEET WITH NO
SIGNIFICANT WEATHER AND/OR OBSTRUCTIONS TO VISIBILITY.

MSZ001>002-007>008-010>013-018>021-025>028-034>036-181800-
NORTHWEST MISSISSIPPI
  
CITY           SKY/WX    TMP DP  RH WIND       PRES   REMARKS
BATESVILLE     HVY RAIN  73  72  94 CALM      29.93R                  
CLARKSDALE     PTSUNNY   88  75  66 CALM      29.92S HX  97           
CLEVELAND      PTSUNNY   83  74  76 W5        29.92S                  
GREENWOOD      PTSUNNY   80  73  79 SW5       29.92F                  
GREENVILLE     FAIR      82  73  74 W9        29.92S                  
OLIVE BRANCH   CLOUDY    73  73 100 CALM      29.93F                  
OXFORD         PTSUNNY   79  70  73 CALM      29.94F THUNDER          
TUNICA           N/A     77  72  83 CALM      29.93S                  
WINONA         LGT RAIN  77  74  91 W5        29.93S                  
$$

MSZ003>006-009-014>017-022>024-029>033-037>039-181800-
NORTHEAST MISSISSIPPI
  
CITY           SKY/WX    TMP DP  RH WIND       PRES   REMARKS
ABERDEEN       PTSUNNY   79  79 100 S6        29.94F FOG              
COLUMBUS AFB   PTSUNNY   82  73  74 S7        29.92F                  
CORINTH        DRIZZLE   77  72  83 CALM      29.94F                  
GOLDN TRIANGLE HVY RAIN  75  73  94 SW10G18   29.94F FOG              
STARKVILLE     PTSUNNY   81  72  74 S9        29.94F                  
TUPELO         PTSUNNY   82  72  71 CALM      29.92F                  
$$

MSZ040-058-181800-
CENTRAL MISSISSIPPI
  
CITY           SKY/WX    TMP DP  RH WIND       PRES   REMARKS
JACKSON INTL   PTSUNNY   82  70  66 SW7       29.94F                  
JACKSON HAWKNS FAIR      84  73  69 SW8       29.95F HX  90           
MADISON        FAIR      81  73  78 W5        29.94F                  
MERIDIAN KEY   FAIR      80  73  79 S9        29.95F                  
MERIDIAN NAS   PTSUNNY   81  72  74 SW13G20   29.95F                  
RAYMOND        FAIR      84  77  79 SW8       29.94F HX  94           
VICKSBURG VKS  SUNNY     82  73  74 SW7       29.95S                  
$$

MSZ059>079-181800-
SOUTH MISSISSIPPI
  
CITY           SKY/WX    TMP DP  RH WIND       PRES   REMARKS
HATTIESBURG    FAIR      76  73  91 S10       29.98F                  
LAUREL         MOSUNNY   80  73  79 S10       29.96F                  
MCCOMB         FAIR      85  71  63 VRB5      29.95F HX  90           
NATCHEZ        PTSUNNY   84  73  70 W7        29.96S HX  91           
PINE BELT      PTSUNNY   78  74  87 S8        29.98F                  
$$

MSZ080>082-181800-
COASTAL MISSISSIPPI
  
CITY           SKY/WX    TMP DP  RH WIND       PRES   REMARKS
BAY ST LOUIS   LGT RAIN  81  75  83 SW8       29.97S FOG              
BILOXI         PTSUNNY   83  75  75 SW10      29.97S HX  91           
PASCAGOULA     CLOUDY    85  75  72 N9        29.98S HX  93           
GULFPORT       PTSUNNY   84  75  74 SW9       29.96F HX  92           
$$

LAZ007>009-015>016-023>026-181800-
NORTHEAST LOUISIANA
  
CITY           SKY/WX    TMP DP  RH WIND       PRES   REMARKS
BASTROP        PTSUNNY   86  72  64 SW8       29.94S HX  92           
TALLULAH/VBURG PTSUNNY   85  74  69 VRB5      29.94S HX  92           
VIDALIA        PTSUNNY   85  72  65 W5        29.94S HX  90           
$$